Hourly Data Report for September 29, 2017

All times are specified in Local Standard Time (LST). Add 1 hour to adjust for Daylight Saving Time where and when it is observed.

ST. STEPHEN
NEW BRUNSWICK

45°12'36.600" N
67°15'10.300" W
26.10 m
8104935
71607
WSS

Download Data

Hourly Data (September 2017)
Hourly Data Report for September 29, 2017
Temp Definition
°C
Dew Point Temp Definition
°C
Rel Hum Definition
%
Wind Dir Definition
10's deg

Wind Spd Definition
km/h
Visibility Definition
km
Stn Press Definition
kPa
Hmdx Definition


Wind Chill Definition


Weather Definition


TIME
00:00 9.8 3.1 63 30 10   100.63     LegendNANA
01:00 8.1 3.7 74 28 7   100.67     LegendNANA
02:00 7.5 3.3 75 29 7   100.69     LegendNANA
03:00 6.4 2.8 78 29 5   100.70     LegendNANA
04:00 6.5 2.6 76 28 8   100.73     LegendNANA
05:00 5.5 2.4 80 29 6   100.74     LegendNANA
06:00 4.6 2.2 85 29 4   100.80     LegendNANA
07:00 5.3 2.6 83 28 6   100.89     LegendNANA
08:00 7.8 3.1 72 30 11   100.89     LegendNANA
09:00 10.5 3.6 62 31 12   100.93     LegendNANA
10:00 11.8 2.5 53 33 14   100.96     LegendNANA
11:00 13.0 2.7 49 31 14   100.95     LegendNANA
12:00 13.9 2.6 46 31 13   100.97     LegendNANA
13:00 15.1 3.7 46 31 11   100.98     LegendNANA
14:00 14.6 3.4 47 34 17   101.01     LegendNANA
15:00 14.6 3.1 46 34 15   101.05     LegendNANA
16:00 14.8 2.7 44 33 11   101.09     LegendNANA
17:00 12.7 2.0 48 34 17   101.18     LegendNANA
18:00 10.5 2.0 55 35 9   101.31     LegendNANA
19:00 8.2 1.9 64 35 5   101.41     LegendNANA
20:00 6.5 1.5 70 35 4   101.46     LegendNANA
21:00 5.1 1.3 76 33 6   101.52     LegendNANA
22:00 4.7 1.3 79 32 5   101.56     LegendNANA
23:00 4.2 1.4 82 32 6   101.62     LegendNANA

Notes on Data Quality.

Legend

  • E = Estimated
  • M = Missing
  • NA = Not Available
  • ‡ = Partner data that is not subject to review by the National Climate Archives
Date modified: